Terminal Aerodrome Forecast
Issued by NWS

Home | Current Version | Previous Version | Text Only | Print | Product List | Glossary On
Versions: 1 2 3 4 5 6 7 8 9 10 11 12 13 14 15 16 17
000
FTUS45 KRIW 012325
TAFJAC
TAF
KJAC 012325Z 0200/0224 20015G23KT P6SM VCTS SCT080CB BKN120
     FM020300 VRB06KT P6SM SCT100
     FM021900 18016G26KT P6SM FEW100
      AMD LTD TO CLD VIS AND WIND=

USA.gov is the U.S. government's official web portal to all federal, state and local government web resources and services.